TimeCDT,TemperatureF,Dew PointF,Humidity,Sea Level PressureIn,VisibilityMPH,Wind Direction,Wind SpeedMPH,Gust SpeedMPH,PrecipitationIn,Events,Conditions,WindDirDegrees,DateUTC
12:53 AM,73.0,54.0,51,29.92,10.0,North,8.1,-,N/A,,Clear,10,2013-06-30 05:53:00
1:53 AM,71.1,55.0,57,29.93,10.0,NNE,8.1,-,N/A,,Clear,20,2013-06-30 06:53:00
2:53 AM,69.1,55.9,63,29.94,10.0,North,4.6,-,N/A,,Clear,10,2013-06-30 07:53:00
3:53 AM,63.0,57.0,81,29.94,10.0,WNW,5.8,-,N/A,,Clear,300,2013-06-30 08:53:00
4:53 AM,63.0,57.0,81,29.95,10.0,NW,5.8,-,N/A,,Clear,320,2013-06-30 09:53:00
5:53 AM,62.1,57.0,84,29.96,10.0,NW,6.9,-,N/A,,Clear,320,2013-06-30 10:53:00
6:53 AM,63.0,57.0,81,29.99,10.0,NW,8.1,-,N/A,,Partly Cloudy,320,2013-06-30 11:53:00
7:53 AM,66.9,57.9,73,30.00,10.0,North,8.1,-,N/A,,Partly Cloudy,350,2013-06-30 12:53:00
8:53 AM,71.1,59.0,66,30.01,10.0,NNW,10.4,-,N/A,,Partly Cloudy,330,2013-06-30 13:53:00
9:53 AM,73.9,59.0,59,30.02,10.0,North,10.4,-,N/A,,Scattered Clouds,10,2013-06-30 14:53:00
10:53 AM,78.1,57.9,50,30.00,10.0,NNE,11.5,-,N/A,,Partly Cloudy,20,2013-06-30 15:53:00
11:53 AM,81.0,54.0,39,30.00,10.0,NNE,16.1,21.9,N/A,,Scattered Clouds,20,2013-06-30 16:53:00
12:53 PM,82.0,52.0,35,29.99,10.0,NNE,16.1,25.3,N/A,,Scattered Clouds,20,2013-06-30 17:53:00
1:53 PM,82.9,51.1,33,29.97,10.0,North,12.7,24.2,N/A,,Scattered Clouds,360,2013-06-30 18:53:00
2:53 PM,84.0,51.1,32,29.96,10.0,North,12.7,19.6,N/A,,Scattered Clouds,350,2013-06-30 19:53:00
3:53 PM,82.9,52.0,34,29.98,10.0,NNE,12.7,21.9,N/A,,Mostly Cloudy,20,2013-06-30 20:53:00
4:53 PM,84.0,53.1,34,29.97,10.0,NE,12.7,-,N/A,,Scattered Clouds,40,2013-06-30 21:53:00
5:53 PM,82.0,51.1,34,29.97,10.0,NNE,16.1,-,N/A,,Partly Cloudy,30,2013-06-30 22:53:00
6:53 PM,80.1,53.1,39,29.97,10.0,NE,16.1,21.9,N/A,,Partly Cloudy,40,2013-06-30 23:53:00
7:53 PM,77.0,53.1,43,29.98,10.0,NE,16.1,-,N/A,,Clear,50,2013-07-01 00:53:00
8:53 PM,75.0,52.0,44,29.99,10.0,NE,12.7,-,N/A,,Clear,50,2013-07-01 01:53:00
9:53 PM,73.0,52.0,48,30.01,10.0,NE,10.4,-,N/A,,Clear,40,2013-07-01 02:53:00
10:53 PM,71.1,52.0,51,30.03,10.0,NNE,9.2,-,N/A,,Clear,30,2013-07-01 03:53:00
11:53 PM,69.1,52.0,54,30.04,10.0,NNE,9.2,-,N/A,,Clear,30,2013-07-01 04:53:00